Location: Vancouver
(49.2500°N, 123.1330°W)
Time: 17:05:59
(UTC-07:00)

Transit 2A Rocket - Visible Passes

Search period start: 07 July 2015 00:00
Search period end: 17 July 2015 00:00
Orbit: 589 x 917 km, 66.7° (Epoch: 06 July)

Date Brightness Start Highest point End Pass type
(mag) Time Alt. Az. Time Alt. Az. Time Alt. Az.
07 Jul 6.3 03:26:41 11° S 03:31:47 36° ESE 03:36:58 10° NE visible
08 Jul 6.9 02:45:50 12° SSE 02:49:51 24° ESE 02:54:21 10° ENE visible
08 Jul 5.3 04:26:09 10° SW 04:32:08 76° NW 04:37:44 10° NE visible
09 Jul 7.3 02:04:58 10° SE 02:07:59 15° ESE 02:11:10 10° ENE visible
09 Jul 5.3 03:44:52 14° SSW 03:49:59 74° ESE 03:55:35 10° NE visible
10 Jul 5.8 03:03:55 19° S 03:07:54 49° ESE 03:13:19 10° NE visible
11 Jul 6.3 02:22:55 20° SSE 02:25:54 32° ESE 02:30:54 10° NE visible
11 Jul 5.6 04:02:51 11° SW 04:08:25 58° NW 04:13:51 10° NNE visible
12 Jul 6.9 01:41:53 17° SE 01:43:59 21° ESE 01:48:09 10° ENE visible
12 Jul 5.2 03:21:49 19° SW 03:26:11 84° NW 03:31:45 10° NE visible
13 Jul 7.3 01:00:49 12° ESE 01:02:07 13° ESE 01:04:37 10° E visible
13 Jul 5.3 02:40:44 26° SSW 02:44:03 66° ESE 02:49:34 10° NE visible
13 Jul 6.4 04:21:54 10° WSW 04:27:06 32° NW 04:31:57 10° NNE visible
14 Jul 5.8 01:59:36 29° SSE 02:01:59 43° ESE 02:07:16 10° NE visible
14 Jul 6.0 03:39:32 12° WSW 03:44:43 44° NW 03:49:56 10° NNE visible
15 Jul 6.4 01:18:26 24° SE 01:20:00 28° ESE 01:24:45 10° NE visible
15 Jul 5.4 02:58:21 20° SW 03:02:25 64° NW 03:07:53 10° NNE visible
15 Jul 7.1 04:41:53 10° WNW 04:46:04 20° NNW 04:49:58 10° NNE visible
16 Jul 6.8 00:37:14 17° ESE 00:38:06 18° ESE 00:41:53 10° ENE visible
16 Jul 5.1 02:17:09 30° SSW 02:20:13 87° SE 02:25:45 10° NE visible
16 Jul 6.8 03:58:43 10° W 04:03:31 26° NW 04:07:58 10° NNE visible
16 Jul 7.3 23:55:59 10° ESE 23:56:15 10° ESE 23:57:30 10° E visible
